Regional Weather Roundup
Issued by NWS

Home | Current Version | Previous Version | Graphics & Text | Print | Product List | Glossary On
Versions: 1 2 3 4 5 6 7 8 9 10 11 12 13 14 15 16 17 18 19 20 21 22 23 24 25 26 27 28 29 30 31 32 33 34 35 36 37 38 39 40 41 42 43 44 45 46 47 48 49 50
000
ASUS44 KMEG 252310
RWRTN
TENNESSEE HOURLY STATE WEATHER ROUNDUP
NATIONAL WEATHER SERVICE MEMPHIS TN
600 PM CDT FRI MAY 25 2018

TNZ002-004-019-021-049-052-054-088>092-260000-
WEST TENNESSEE

CITY           SKY/WX    TMP DP  RH WIND       PRES   REMARKS
MEMPHIS INTL   LGT RAIN  79  72  79 S5        29.86F
NWS MEMPHIS      N/A     74 N/A N/A MISG        N/A
JACKSON        PTSUNNY   80  72  76 CALM      29.89S
DYERSBURG      FAIR      76  71  85 S7        29.90S THUNDER
SOMERVILLE     PTSUNNY   73  70  88 SE6G13    29.89R
COVINGTON      MOSUNNY   75  72  88 NE6       29.88F
UNION CITY     PTSUNNY   75  70  83 E7        29.88F
BOLIVAR        PTSUNNY   79  73  83 CALM      29.89S
PARIS          PTSUNNY   75  72  88 CALM      29.91S
HUNTINGDON     SUNNY     77  70  78 CALM      29.90S
LEXINGTON      PTSUNNY   75  72  88 CALM      29.90F
SELMER         MOSUNNY   79  72  78 NE3       29.89S
SAVANNAH       PTSUNNY   79  73  83 CALM      29.90S
$$

TNZ008-025-027-028-033-062-065-066-260000-
NORTH MIDDLE TENNESSEE

CITY           SKY/WX    TMP DP  RH WIND       PRES   REMARKS
NASHVILLE      CLOUDY    77  66  68 W3        29.90F
DICKSON        CLEAR     73  66  78 E9        29.93R
PORTLAND       PTSUNNY   84  64  51 CALM      29.89S
CLARKSVILLE    FAIR      76  69  79 SW7       29.90R
SMYRNA         PTSUNNY   77  71  82 CALM      29.91S
MURFREESBORO   CLOUDY    75  70  83 N5G12     29.91R HAZE
COOKEVILLE     SUNNY     81  68  65 CALM      29.91F
LIVINGSTON     CLEAR     81  64  57 W6        29.92S
CROSSVILLE     FAIR      81  63  54 W5        29.97F
ROCKWOOD       CLEAR     82  68  61 S5        29.95S
$$

TNZ061-075-076-078-094-096-097-260000-
SOUTH MIDDLE TENNESSEE

CITY           SKY/WX    TMP DP  RH WIND       PRES   REMARKS
LEWISBURG      CLEAR     77  70  78 SW3       29.91F
TULLAHOMA      SUNNY     77  66  69 SW6       29.92S
WINCHESTER     SUNNY     77  66  69 CALM      29.92F
MCMINNVILLE    PTSUNNY   81  66  61 SW7G17    29.92R
COLUMBIA       PTSUNNY   77  73  88 S10       29.91S
SHELBYVILLE    SUNNY     81  68  65 SW6       29.91F
$$

TNZ017-018-042-046-047-260000-
NORTHEAST TENNESSEE

CITY           SKY/WX    TMP DP  RH WIND       PRES   REMARKS
TRI CITIES     PTSUNNY   81  66  60 CALM      29.96S
ELIZABETHTON   CLOUDY    79  63  57 VRB7      29.98R
GREENEVILLE    CLEAR     81  64  57 VRB7G17   29.97S
$$

TNZ012-013-036-069-073-074-260000-
CENTRAL EAST TENNESSEE

CITY           SKY/WX    TMP DP  RH WIND       PRES   REMARKS
KNOXVILLE      CLOUDY    82  68  62 S6        29.93S
OAK RIDGE      FAIR      79  65  62 SE13G28   29.94R
DOWNTOWN KNOXV MOSUNNY   82  68  61 SW6       29.94R
GATLINBURG     PTSUNNY   81  70  69 CALM      29.93F
MORRISTOWN     SUNNY     82  66  57 S7        29.95S
JACKSBORO      SUNNY     84  66  54 S6        29.95F
$$

TNZ083-085-099-260000-
SOUTHEAST TENNESSEE

CITY           SKY/WX    TMP DP  RH WIND       PRES   REMARKS
CHATTANOOGA    PTSUNNY   86  63  45 S7        29.91F
DAYTON         MOCLDY    86  73  66 W8        29.89F HX  93
$$

SKY/WX REPORTED AS FAIR MEANS FEW OR NO CLOUDS BELOW
12 THOUSAND FEET.




USA.gov is the U.S. government's official web portal to all federal, state and local government web resources and services.